Weather in Kubachi

Russia / Republic of Dagestan     42°05′10″N   47°36′14″E
temp.,
°C
wind,
m/s
gust,
m/s
humid.,
%
clouds,
%
prec.,
mm/h
press.,
hPa
HPBL,
m
12 may, wed
wed1200:00+6ssw33560 0.0 101324
03:00+6sw43580 0.0 101325
06:00+9sw33590 0.0 101344
09:00+16e14360 0.0 10111434
12:00+17e14330 0.0 10111731
15:00+17nne14330 0.0 10111656
18:00+13n11600 0.0 101419
21:00+9ssw4337100 0.0 101634
13 may, thu
thu1300:00+9sw43380 0.0 101631
03:00+9sw54380 0.0 101637
06:00+11ssw44493 0.0 101655
09:00+18se14250 0.0 10142142
12:00+20nnw042612 0.0 10132942
15:00+19ene434189 0.0 10141476
18:00+16ene116316 0.2 101532
21:00+11sw43552 0.3 101825
14 may, fri
fri1400:00+10sw43430 0.0 101827
03:00+9sw43350 0.0 101828
06:00+11ssw33405 0.0 101843
09:00+18e232327 0.0 10161505
12:00+19ene654189 0.0 10151511
15:00+18ne444658 0.1 10161383
18:00+11sw3479100 1.6 1019139
21:00+10ssw3268100 1.9 101816
15 may, sat
sat1500:00+10ssw33673 0.0 101826
03:00+9ssw43633 0.0 101827
06:00+12ssw33572 0.0 101749
09:00+17ene32430 0.0 10151134
12:00+17ne535724 0.3 10151034
15:00+17ene225299 3.1 1016866
18:00+14se116427 0.1 101682
21:00+9ssw32655 0.1 101816
16 may, sun
sun1600:00+9ssw336263 0.0 101719
03:00+8ssw33615 0.0 101724
06:00+11ssw22590 0.0 101654
09:00+17e34400 0.0 10131259
12:00+18ene56473 0.0 10121257
15:00+17ene55480 0.0 10111069
18:00+14ene23660 0.0 1012175
21:00+10ssw43570 0.0 101333